This demonstration page uses our WeatherBlox Daily Observations layout. Learn more.

Left ArrowRight Arrow

Hourly Observations for November 6, 2018

Temp ( °F °C ) Dew Point ( °F °C ) Humidity (%) Winds ( mph kmh ) Pressure ( in mb ) Visibility ( mi km ) Precip ( " mm )
12:53 am 00:53 Clear 52 11.1 44 6.7 75 75 ESE 6 9 29.77 1008 10 16 0.00 0.00
1:53 am 01:53 Clear 49 9.4 44 6.7 83 83 Calm 29.77 1008 10 16 0.00 0.00
2:53 am 02:53 Clear 50 10 43 6.1 77 77 Calm 29.76 1008 10 16 0.00 0.00
3:53 am 03:53 Clear 46 7.8 42 5.6 86 86 SE 3 6 29.77 1008 10 16 0.00 0.00
4:53 am 04:53 Clear 46 7.8 42 5.6 86 86 Calm 29.77 1008 10 16 0.00 0.00
5:53 am 05:53 Clear 45 7.2 42 5.6 90 90 Calm 29.80 1009 10 16 0.00 0.00
6:53 am 06:53 Clear 44 6.7 41 5 89 89 Calm 29.83 1010 10 16 0.00 0.00
7:53 am 07:53 Sunny 46 7.8 42 5.6 86 86 N 3 6 29.85 1011 10 16 0.00 0.00
8:53 am 08:53 Sunny 54 12.2 46 7.8 75 75 NNW 6 9 29.87 1012 10 16 0.00 0.00
9:53 am 09:53 Sunny 66 18.9 48 8.9 52 52 NW 6 9 29.86 1011 10 16 0.00 0.00
10:53 am 10:53 Sunny 73 22.8 41 5 32 32 W 16 26 29.85 1011 10 16 0.00 0.00
11:53 am 11:53 Sunny 76 24.4 41 5 29 29 W 13 20 29.83 1010 10 16 0.00 0.00
12:53 pm 12:53 Sunny 79 26.1 40 4.4 25 25 W 13 20 29.80 1009 10 16 0.00 0.00
1:53 pm 13:53 Sunny 81 27.2 40 4.4 23 23 WNW 9 15 29.78 1009 10 16 0.00 0.00
2:53 pm 14:53 Sunny 81 27.2 38 3.3 21 21 W 9 15 29.77 1008 10 16 0.00 0.00
3:53 pm 15:53 Sunny 81 27.2 38 3.3 21 21 WNW 10 17 29.77 1008 10 16 0.00 0.00
4:53 pm 16:53 Sunny 80 26.7 39 3.9 23 23 NNW 6 9 29.78 1008 10 16 0.00 0.00
5:53 pm 17:53 Sunny 72 22.2 44 6.7 37 37 N 5 7 29.78 1009 10 16 0.00 0.00
6:53 pm 18:53 Clear 67 19.4 45 7.2 45 45 Calm 29.81 1010 10 16 0.00 0.00
7:53 pm 19:53 Clear 64 17.8 45 7.2 50 50 SE 3 6 29.83 1010 10 16 0.00 0.00
8:53 pm 20:53 Clear 60 15.6 44 6.7 56 56 WSW 6 9 29.83 1010 10 16 0.00 0.00
9:53 pm 21:53 Clear 57 13.9 45 7.2 64 64 Calm 29.83 1010 10 16 0.00 0.00
10:53 pm 22:53 Clear 58 14.4 44 6.7 60 60 Calm 29.83 1010 10 16 0.00 0.00
11:53 pm 23:53 Clear 57 13.9 43 6.1 60 60 Calm 29.83 1010 10 16 0.00 0.00

Powered by AerisWeather